******************************************************************************* JPL/HORIZONS 18D/Perrine-Mrkos 2025-Dec-12 18:02:28 Rec #:90000290 Soln.date: - # obs: 17 (1961-1968) IAU76/J2000 helio. ecliptic osc. elements (au, days, deg., period=Julian yrs): EPOCH= 2437720.5 ! 1962-Feb-25.0000000 (TDB) RMSW= n.a. EC= .64314 QR= 1.268889 TP= 2437708.2692 OM= 240.9439 W= 165.942 IN= 17.7639 A= 3.555705318612341 MA= 1.797919722326026 ADIST= 5.842521637224682 PER= 6.7049700812365 N= .146999356 ANGMOM= .024838796 DAN= 5.54332 DDN= 1.28394 L= 47.5313705 B= 4.2500222 TP= 1962-Feb-12.7692000000 Comet physical (GM= km^3/s^2; RAD= km): GM= n.a. RAD= n.a. M1= 11.5 M2= 15.5 k1= 20. k2= 15. PHCOF= n.a. COMET comments 1: soln ref.= SAO/1962 2: k1=20.0, k2=15.0;2008 SAO Comet Catalog ******************************************************************************* ******************************************************************************* Ephemeris / WWW_USER Fri Dec 12 18:02:28 2025 Pasadena, USA / Horizons ******************************************************************************* Target body name: 18D/Perrine-Mrkos {source: SAO/196220} Center body name: Earth (399) {source: DE441} Center-site name: GEOCENTRIC ******************************************************************************* Start time : A.D. 2025-Jan-01 22:00:00.0000 UT Stop time : A.D. 2025-Jan-02 00:00:00.0000 UT Step-size : 10 minutes ******************************************************************************* Target pole/equ : undefined Target radii : undefined Center geodetic : 0.0, 0.0, -6378.137 {E-lon(deg),Lat(deg),Alt(km)} Center cylindric: 0.0, 0.0, 0.0 {E-lon(deg),Dxy(km),Dz(km)} Center pole/equ : ITRF93 {East-longitude positive} Center radii : 6378.137, 6378.137, 6356.752 km {Equator_a, b, pole_c} Target primary : Sun Vis. interferer : MOON (R_eq= 1737.400) km {source: DE441} Rel. light bend : Sun {source: DE441} Rel. lght bnd GM: 1.3271E+11 km^3/s^2 Small-body perts: Yes {source: SB441-N16} Atmos refraction: NO (AIRLESS) RA format : HMS Time format : CAL Calendar mode : Mixed Julian/Gregorian EOP file : eop.251212.p260310 EOP coverage : DATA-BASED 1962-JAN-20 TO 2025-DEC-12. PREDICTS-> 2026-MAR-09 Units conversion: 1 au= 149597870.700 km, c= 299792.458 km/s, 1 day= 86400.0 s Table cut-offs 1: Elevation (-90.0deg=NO ),Airmass (>38.000=NO), Daylight (NO ) Table cut-offs 2: Solar elongation ( 0.0,180.0=NO ),Local Hour Angle( 0.0=NO ) Table cut-offs 3: RA/DEC angular rate ( 0.0=NO ) ******************************************************************************* Initial IAU76/J2000 heliocentric ecliptic osculating elements (au, days, deg.): EPOCH= 2437720.5 ! 1962-Feb-25.0000000 (TDB) RMSW= n.a. EC= .64314 QR= 1.268889 TP= 2437708.2692 OM= 240.9439 W= 165.942 IN= 17.7639 Equivalent ICRF heliocentric cartesian coordinates (au, au/d): X= 6.806690474092507E-01 Y= 9.829237799954246E-01 Z= 4.505839982407736E-01 VX=-1.485166980231096E-02 VY= 1.258842754476856E-02 VZ=-9.688436098091951E-04 Comet physical (GM= km^3/s^2; RAD= km): GM= n.a. RAD= n.a. M1= 11.5 M2= 15.5 k1= 20. k2= 15. PHCOF= n.a. ******************************************************************************* Date__(UT)__HR:MN r rdot ************************************************** $$SOE 2025-Jan-01 22:00 1.635581323731 0.0304061 2025-Jan-01 22:10 1.635581447238 0.0311845 2025-Jan-01 22:20 1.635581573867 0.0319630 2025-Jan-01 22:30 1.635581703618 0.0327414 2025-Jan-01 22:40 1.635581836491 0.0335198 2025-Jan-01 22:50 1.635581972486 0.0342982 2025-Jan-01 23:00 1.635582111603 0.0350767 2025-Jan-01 23:10 1.635582253842 0.0358551 2025-Jan-01 23:20 1.635582399203 0.0366335 2025-Jan-01 23:30 1.635582547686 0.0374119 2025-Jan-01 23:40 1.635582699290 0.0381904 2025-Jan-01 23:50 1.635582854017 0.0389688 2025-Jan-02 00:00 1.635583011865 0.0397472 $$EOE ******************************************************************************* Column meaning: TIME Times PRIOR to 1962 are UT1, a mean-solar time closely related to the prior but now-deprecated GMT. Times AFTER 1962 are in UTC, the current civil or "wall-clock" time-scale. UTC is kept within 0.9 seconds of UT1 using integer leap-seconds for 1972 and later years. Conversion from the internal Barycentric Dynamical Time (TDB) of solar system dynamics to the non-uniform civil UT time-scale requested for output has not been determined for UTC times after the next July or January 1st. Therefore, the last known leap-second is used as a constant over future intervals. Time tags refer to the UT time-scale conversion from TDB on Earth regardless of observer location within the solar system, although clock rates may differ due to the local gravity field and no analog to "UT" may be defined for that location. Any 'b' symbol in the 1st-column denotes a B.C. date. First-column blank (" ") denotes an A.D. date. CALENDAR SYSTEM Mixed calendar mode was active such that calendar dates after AD 1582-Oct-15 (if any) are in the modern Gregorian system. Dates prior to 1582-Oct-5 (if any) are in the Julian calendar system, which is automatically extended for dates prior to its adoption on 45-Jan-1 BC. The Julian calendar is useful for matching historical dates. The Gregorian calendar more accurately corresponds to the Earth's orbital motion and seasons. A "Gregorian-only" calendar mode is available if such physical events are the primary interest. NOTE: "n.a." in output means quantity "not available" at the print-time. 'r rdot' = The Sun's apparent range ("r", light-time aberrated) and range-rate ("rdot") relative to the target center, as seen by the observer. A positive "rdot" means the target center was moving away from the Sun, negative means moving toward the Sun. Units: AU and KM/S Computations by ... Solar System Dynamics Group, Horizons On-Line Ephemeris System 4800 Oak Grove Drive, Jet Propulsion Laboratory Pasadena, CA 91109 USA General site: https://ssd.jpl.nasa.gov/ Mailing list: https://ssd.jpl.nasa.gov/email_list.html System news : https://ssd.jpl.nasa.gov/horizons/news.html User Guide : https://ssd.jpl.nasa.gov/horizons/manual.html Connect : browser https://ssd.jpl.nasa.gov/horizons/app.html#/x API https://ssd-api.jpl.nasa.gov/doc/horizons.html command-line telnet ssd.jpl.nasa.gov 6775 e-mail/batch https://ssd.jpl.nasa.gov/ftp/ssd/horizons_batch.txt scripts https://ssd.jpl.nasa.gov/ftp/ssd/SCRIPTS Author : Jon.D.Giorgini@jpl.nasa.gov ******************************************************************************* !$$SOF COMMAND = '90000290' QUANTITIES = '19' START_TIME = '2025-Jan-01 22:00' STEP_SIZE = '10 minutes' STOP_TIME = '2025-Jan-02'